Location: Bastrop State Park
(30.1090°N, 97.2819°W)
Time: 07:29:09
(UTC-05:00)

Daily predictions for brighter satellites

Satellite Brightness Start Highest point End
(mag) Time Altitude Azimuth Time Altitude Azimuth Time Altitude Azimuth
Atlas 2A Centaur Rocket 4.3 20:25:27 10° W 20:30:42 73° S 21:04:35 10° ESE
Cosmos 2056 Rocket 3.6 20:53:53 10° NNW 20:59:05 84° WSW 21:04:20 10° SSE
Cosmos 972 4.3 20:55:34 10° S 21:00:35 74° ESE 21:05:26 10° NNE
Cosmos 1624 Rocket 4.4 20:58:01 10° NNW 21:03:20 72° WSW 21:08:35 10° S
CZ-3C R/B 3.6 12:24:55 10° SW 21:03:28 30° S 21:09:15 10° SE
YAOGAN 6 2.7 21:00:08 10° SSE 21:03:37 56° ENE 21:07:04 10° N
Cosmos 1238 Rocket 4.3 21:04:35 10° E 21:05:12 10° E 21:05:47 10° ENE
Cosmos 2285 Rocket 4.4 20:59:20 10° SSE 21:05:13 42° E 21:11:04 10° NNE
Cosmos 1400 Rocket 2.8 21:01:33 10° S 21:05:34 68° E 21:09:32 10° NNE
Lacrosse 5 2.9 21:05:37 10° SW 21:10:32 51° NW 21:15:28 10° NNE
BREEZE-M R/B 2.8 21:07:37 10° NW 21:10:52 40° NE 21:13:05 11° ESE
CZ-2D R/B 3.9 21:07:03 10° S 21:10:52 58° W 21:14:41 10° NNW
Cosmos 1655 Rocket 4.0 21:05:55 10° N 21:12:10 89° E 21:18:23 10° S
Cosmos 2266 Rocket 4.4 21:07:31 10° N 21:13:33 44° E 21:19:27 10° SSE
Cosmos 1470 2.7 21:10:05 10° N 21:14:00 80° E 21:17:55 10° S
Aureole 1 Rocket 2.2 21:14:29 10° SSW 21:17:29 88° ESE 21:20:59 10° NNE
Meteor 2-11 Rocket 4.4 21:12:15 10° S 21:18:18 79° E 21:24:22 10° N
Cosmos 1607 4.0 21:13:37 10° NNW 21:20:00 80° ENE 21:26:11 10° SSE
H-2A R/B 3.9 21:18:57 10° ESE 21:22:00 16° ENE 21:25:04 10° NNE
Cosmos 1269 Rocket 4.1 21:18:08 10° S 21:23:17 55° ESE 21:28:28 10° NNE
Cosmos 1733 4.3 21:20:21 10° NNW 21:23:58 45° W 21:27:34 10° SSW
ATLAS 2AS CENTAUR R/B 3.0 21:25:24 10° SSW 21:32:59 85° ESE 21:41:06 10° NNE
Aurora 2 Rocket 3.7 21:29:30 10° WSW 21:34:45 50° SSE 21:41:56 11° E
Resurs 1-3 3.5 21:30:26 10° SSE 21:34:48 83° ENE 21:39:11 10° N
Centaur D-1AR AC-36 3.6 21:06:29 10° W 21:34:55 50° SSW 21:38:59 17° SE
SEDSat Delta rocket 3.7 21:33:50 10° SW 21:39:16 48° SSE 21:43:33 13° E
Thor Agena Rocket 4.3 21:35:14 10° N 21:40:10 54° WNW 21:45:04 10° SSW
In-Cosmos 22 4.2 21:34:52 10° S 21:40:17 66° E 21:45:52 10° NNE
Meteor 2-5 Rocket 3.8 21:34:27 10° S 21:40:24 89° E 21:46:21 10° N
Iridium 4 Rocket 3.7 21:35:12 10° SSE 21:40:52 64° E 21:46:09 10° N
Cosmos 1812 Rocket 3.9 21:36:32 10° NNW 21:40:52 67° W 21:45:13 10° S
Cosmos 1953 Rocket 3.5 21:39:33 10° S 21:43:50 63° E 21:48:09 10° NNE
Palapa 6 Rocket 4.1 21:39:59 10° WSW 21:44:32 38° S 21:47:51 21° SE
Cosmos 1758 Rocket 3.6 21:44:30 10° S 21:48:57 86° W 21:53:23 10° N
Cosmos 1674 3.4 21:50:20 27° SE 21:51:26 32° E 21:54:53 10° NNE
Cosmos 1437 3.7 21:49:28 10° NNE 21:52:15 28° E 21:52:33 27° E
Meteor 1-16 Rocket 4.2 21:47:50 10° N 21:53:29 90° NW 21:58:41 13° S
Cosmos 1932 4.4 21:48:39 10° NNW 21:54:52 81° ENE 21:59:00 22° SSE
Cosmos 2251 Rocket 4.4 21:56:52 25° SE 21:58:33 30° E 22:03:08 10° NE
USA 186 4.4 21:58:19 10° SW 22:00:34 17° W 22:02:45 10° NW
Resurs 01 Rocket 2.5 21:58:47 10° S 22:02:58 47° W 22:07:13 10° NNW
ERS-2 2.6 22:00:37 20° S 22:03:02 58° W 22:06:39 10° NNW
USA 215 3.5 21:58:50 22° ESE 22:03:09 61° NE 22:09:36 10° NNW
Cosmos 1726 3.9 22:04:55 10° NNE 22:07:13 19° ENE 22:07:13 19° ENE
NOSS 3-4 (A) 3.7 22:05:05 10° S 22:10:53 45° ESE 22:16:47 10° NE
NOSS 3-4 (C) 3.7 22:05:12 10° S 22:10:58 44° ESE 22:16:51 10° NE
OAO 3 Rocket 4.0 22:07:11 10° WNW 22:12:00 48° N 22:15:31 17° ENE
Cosmos 921 Rocket 3.7 22:08:27 10° N 22:12:39 38° ENE 22:13:34 34° ESE
Delta 198 4.4 22:09:32 10° WSW 22:15:38 48° S 22:17:29 35° SE
OAO 3 Copernicus 4.2 22:11:40 10° WNW 22:16:46 87° SSW 22:18:43 38° ESE
Cosmos 1461 3.1 22:15:56 31° S 22:17:53 55° ESE 22:22:30 10° NE
Cosmos 1417 Rocket 4.5 22:16:02 22° S 22:20:17 70° E 22:26:34 10° N
ARGOS 3.1 22:17:48 32° SSE 22:20:23 77° ENE 22:25:49 10° N
Cosmos 2278 Rocket 2.4 22:18:53 34° SSE 22:20:46 46° ESE 22:26:10 10° NNE
H-II Stage 2 3.0 22:20:59 10° WSW 22:23:55 24° SSW 22:23:55 24° SSW
MetOp-A 4.0 22:24:08 36° SSE 22:26:26 83° ENE 22:31:48 10° N
ATLAS 3B CENTAUR R/B 4.3 22:05:21 10° WSW 22:28:10 60° SSE 22:35:03 21° E
Meteor 1-21 Rocket 4.5 22:29:59 41° SE 22:31:31 51° E 22:37:07 10° NNE
Cosmos 220 Rocket 3.8 22:31:09 46° SSW 22:32:23 89° E 22:36:36 10° NNE
Cosmos 1844 Rocket 4.4 22:32:24 10° SW 22:37:27 33° WNW 22:42:33 10° N
ASC 2 Rocket 4.4 22:33:49 10° WSW 22:38:27 32° SSW 22:38:27 32° SSW
SL-08 RB Rocket 3.7 22:39:23 55° S 22:40:25 83° WSW 22:45:06 10° NNW
KORONAS-FOTON 4.1 22:40:26 53° SW 22:41:05 63° W 22:44:58 10° N
Cosmos 1745 Rocket 4.2 22:36:41 10° N 22:42:47 51° E 22:43:58 45° ESE
SL-14 R/B 4.4 22:44:52 33° NE 22:44:52 33° NE 22:47:20 10° NNE
COSMOS 2406 3.3 22:39:45 10° N 22:45:26 58° ENE 22:46:26 51° ESE
SL-08 R/B 4.4 22:39:48 10° N 22:45:58 72° E 22:47:38 49° SSE
SPOT 5 3.3 22:45:39 46° E 22:46:00 47° ENE 22:51:00 10° N
CZ-3 Stage 3 4.2 22:44:40 10° W 22:49:04 89° S 23:18:14 10° E
Cosmos 1110 Rocket 3.9 22:47:52 10° NNW 22:53:03 83° WSW 22:53:47 66° S
Cosmos 2084 3.8 22:49:21 10° NW 22:52:40 50° W 22:52:40 50° W
Cosmos 1346 Rocket 4.0 22:50:13 10° NNW 22:53:57 36° W 22:54:36 34° WSW
ATLAS 5 CENTAUR R/B 2.0 22:55:48 50° NE 22:55:48 50° NE 22:59:21 10° NNE
Cosmos-2242 4.3 22:53:04 10° NNW 22:57:06 36° W 22:58:13 31° SW
ATLAS 3B R/B 2.9 22:52:23 10° NNW 22:58:48 53° ENE 23:00:07 46° E
SPOT 1/Viking Rocket 3.5 23:00:47 65° E 23:00:52 65° ENE 23:05:58 10° N
H-2A R/B 2.7 22:59:23 39° SSW 23:00:52 51° W 23:06:06 10° NNW
USA 238 DEB 3.7 22:56:06 10° NNW 23:03:19 80° ENE 23:05:06 55° SE
S3M 4.3 23:00:15 31° SSW 23:03:23 65° W 23:09:45 10° N
USA 238 3.7 22:56:13 10° NNW 23:03:26 79° ENE 23:05:12 55° SE
Cosmos 1626 4.4 23:06:15 17° NNE 23:06:15 17° NNE 23:07:17 10° NNE
Helios 1A 3.6 23:05:04 51° NNE 23:05:04 51° NNE 23:08:21 10° N
Cosmos 1331 Rocket 4.0 23:00:13 10° NNW 23:05:24 71° WSW 23:05:51 67° SW
Helios 1B rocket 3.3 23:07:11 10° NNE 23:10:02 44° NNE 23:10:02 44° NNE
Cosmos 2082 Rocket 3.9 23:10:44 10° NNE 23:14:50 20° ENE 23:14:50 20° ENE
NOSS 3-2 (A) 4.2 23:07:19 10° NNW 23:15:05 63° ENE 23:17:06 50° ESE
Cosmos 1833 Rocket 4.2 23:11:07 10° N 23:15:19 23° ENE 23:15:19 23° ENE
Cosmos 1709 Rocket 4.4 23:10:08 10° N 23:15:45 44° ENE 23:15:45 44° ENE
Cosmos 1842 Rocket 4.1 23:12:48 10° NNW 23:16:22 56° NW 23:16:22 56° NW
Cosmos 1340 4.2 23:14:51 10° NNW 23:17:22 35° NW 23:17:22 35° NW
Landsat 7 4.1 23:21:20 64° N 23:21:20 64° N 23:25:23 10° NNW
CZ-2C R/B 3.6 23:17:37 10° NNE 23:21:06 35° NE 23:21:06 35° NE
Aureole 3 Rocket 4.3 23:24:36 63° SE 23:25:23 68° E 23:31:35 10° NNE
SEDSat Delta rocket 4.2 23:20:17 10° W 23:23:43 41° W 23:23:43 41° W
ERS-1 Rocket 4.0 23:26:45 36° WSW 23:27:05 37° W 23:31:43 10° NNW
Aurora 2 Rocket 4.0 23:21:56 10° W 23:28:29 59° S 23:28:29 59° S
Cosmos 1302 Rocket 4.3 23:29:13 10° NNW 23:33:50 63° WNW 23:33:50 63° WNW
Cosmos 1375 Rocket 4.4 23:28:03 10° NNW 23:34:37 89° WSW 23:34:46 87° SSE
Terra 2.6 23:41:23 48° N 23:41:23 48° N 23:44:48 10° NNW
NOSS 3-2 (C) 4.1 23:33:12 10° NNW 23:41:00 67° ENE 23:42:13 60° ESE
USA 215 4.4 23:46:11 28° SW 23:46:16 28° WSW 23:51:43 10° WNW
Cosmos 2221 4.1 23:42:31 10° NNW 23:45:02 33° NNW 23:45:02 33° NNW
Cosmos 2315 Rocket 4.0 23:47:00 72° W 23:47:08 72° W 23:53:29 10° N
